This is the latest recevied weather packets stored in our database for station/object DC2ML-10. If no packets are shown the sender has not sent any weather packets the latest 10 day(s).
| Time | Temp. | Humidity | Pressure | Rain* | Wind** | Luminosity | Snow |
|---|---|---|---|---|---|---|---|
| 1777686125 | 19.44° C | 36% | 1021.5 hPa | - | - | - | - |
| 1777682828 | 20° C | 36% | 1022.2 hPa | - | - | - | - |
| 1777679524 | 20° C | 36% | 1022.5 hPa | - | - | - | - |
| 1777676224 | 20° C | 36% | 1022.8 hPa | - | - | - | - |
| 1777672924 | 20° C | 36% | 1022.9 hPa | - | - | - | - |
| 1777669624 | 20° C | 36% | 1023 hPa | - | - | - | - |
| 1777666324 | 20° C | 35% | 1023.1 hPa | - | - | - | - |
| 1777663024 | 20° C | 35% | 1023 hPa | - | - | - | - |
| 1777659724 | 20° C | 35% | 1023 hPa | - | - | - | - |
| 1777656424 | 20° C | 35% | 1022.9 hPa | - | - | - | - |
| 1777653123 | 19.44° C | 35% | 1023.2 hPa | - | - | - | - |
| 1777649823 | 19.44° C | 35% | 1023.7 hPa | - | - | - | - |
| 1777646522 | 19.44° C | 35% | 1024.1 hPa | - | - | - | - |
| 1777643222 | 19.44° C | 35% | 1024.7 hPa | - | - | - | - |
| 1777639922 | 19.44° C | 35% | 1025.3 hPa | - | - | - | - |
| 1777636622 | 19.44° C | 35% | 1026 hPa | - | - | - | - |
| 1777633322 | 19.44° C | 35% | 1026.7 hPa | - | - | - | - |
| 1777630022 | 19.44° C | 35% | 1027.1 hPa | - | - | - | - |
| 1777626722 | 19.44° C | 35% | 1027.9 hPa | - | - | - | - |
| 1777626129 | 19.44° C | 35% | 1027.9 hPa | - | - | - | - |
| 1777622828 | 19.44° C | 34% | 1028.2 hPa | - | - | - | - |
| 1777619528 | 18.89° C | 35% | 1028.1 hPa | - | - | - | - |
| 1777616228 | 17.78° C | 37% | 1028.1 hPa | - | - | - | - |
| 1777612928 | 17.78° C | 37% | 1028.1 hPa | - | - | - | - |
| 1777609628 | 18.33° C | 37% | 1027.9 hPa | - | - | - | - |
* Rain since midnight (hover to see other rain measurements)
** Current wind speed in m/s (hover to see current wind gust speed)